EW8702 Weather Reports


Display with metric or nautical units.
time (UTC)temp
F
wind
direction
speed
MPH
gust
MPH
rain 1hr
in
rain 24hr
in
rain mn
in
humidity
%
barometer
mb
20200406092121 50 159 7.0 16.0 0.00 0.00 0.00 43 996.1
20200406091121 51 128 3.0 8.0 0.00 0.00 0.00 40 996.4
20200406090122 51 170 2.0 5.0 0.00 0.00 0.00 39 996.7
20200406085122 51 175 6.0 13.0 0.00 0.00 0.00 40 997.0
20200406084122 52 180 11.0 18.0 0.00 0.00 0.00 37 996.5
20200406083122 53 159 6.0 25.0 0.00 0.00 0.00 34 996.3
20200406082121 54 176 8.0 16.0 0.00 0.00 0.00 27 996.4
20200406081121 54 182 4.0 9.0 0.00 0.00 0.00 28 996.3
20200406080121 54 211 5.0 9.0 0.00 0.00 0.00 27 996.4
20200406075121 55 205 10.0 17.0 0.00 0.00 0.00 26 996.5
20200406074121 56 190 11.0 18.0 0.00 0.00 0.00 23 996.2
20200406073122 56 184 7.0 15.0 0.00 0.00 0.00 24 996.1
20200406072122 56 187 9.0 15.0 0.00 0.00 0.00 23 996.2
20200406071121 56 188 9.0 15.0 0.00 0.00 0.00 23 996.1
20200406070121 56 205 9.0 12.0 0.00 0.00 0.00 23 995.9
20200406065121 56 205 4.0 7.0 0.00 0.00 0.00 24 995.9
20200406064121 56 195 7.0 13.0 0.00 0.00 0.00 23 995.7
20200406063122 55 187 4.0 11.0 0.00 0.00 0.00 23 995.8
20200406062122 53 120 3.0 5.0 0.00 0.00 0.00 28 995.6
20200406061122 54 174 3.0 7.0 0.00 0.00 0.00 30 995.5
20200406060122 52 206 2.0 5.0 0.00 0.00 0.00 35 995.5
20200406055121 52 141 2.0 4.0 0.00 0.00 0.00 35 995.5
20200406054121 54 166 1.0 4.0 0.00 0.00 0.00 30 995.4
20200406053122 55 175 3.0 6.0 0.00 0.00 0.00 26 995.1
20200406052122 54 185 4.0 15.0 0.00 0.00 0.00 29 995.1
20200406051122 52 120 4.0 9.0 0.00 0.00 0.00 32 995.1
20200406050121 51 86 1.0 2.0 0.00 0.00 0.00 41 995.0
20200406045122 51 86 1.0 2.0 0.00 0.00 0.00 41 994.9
20200406044122 52 107 1.0 3.0 0.00 0.00 0.00 38 995.0
20200406043121 53 186 1.0 3.0 0.00 0.00 0.00 34 995.0
20200406042121 54 170 1.0 3.0 0.00 0.00 0.00 31 994.8
20200406041121 55 113 2.0 4.0 0.00 0.00 0.00 29 994.8
20200406040121 55 138 1.0 3.0 0.00 0.00 0.00 27 994.6
20200406035122 55 101 2.0 3.0 0.00 0.00 0.00 30 994.6
20200406034122 55 155 1.0 3.0 0.00 0.00 0.00 29 994.7
20200406033121 56 170 1.0 4.0 0.00 0.00 0.00 27 994.5
20200406032121 56 135 1.0 2.0 0.00 0.00 0.00 26 994.4
20200406031122 56 176 1.0 4.0 0.00 0.00 0.00 27 994.2
20200406030122 55 100 2.0 5.0 0.00 0.00 0.00 30 994.2
20200406025122 56 107 2.0 4.0 0.00 0.00 0.00 30 994.3
20200406024121 55 110 4.0 11.0 0.00 0.00 0.00 29 994.2
20200406023121 53 90 1.0 2.0 0.00 0.00 0.00 38 994.1
20200406022122 54 114 3.0 7.0 0.00 0.00 0.00 37 993.9
20200406021122 55 105 2.0 5.0 0.00 0.00 0.00 35 993.9
20200406020122 55 88 5.0 7.0 0.00 0.00 0.00 33 993.8
20200406015121 55 107 2.0 6.0 0.00 0.00 0.00 35 993.9
20200406014121 55 107 1.0 3.0 0.00 0.00 0.00 33 993.9
20200406013121 55 67 2.0 4.0 0.00 0.00 0.00 35 993.7
20200406012121 55 91 5.0 8.0 0.00 0.00 0.00 34 993.7
20200406011121 56 91 6.0 9.0 0.00 0.00 0.00 34 993.9
20200406010122 56 89 7.0 10.0 0.00 0.00 0.00 33 993.7
20200406005121 56 93 4.0 6.0 0.00 0.00 0.00 32 993.6
20200406004122 57 93 5.0 10.0 0.00 0.00 0.00 32 993.5
20200406003121 57 71 4.0 5.0 0.00 0.00 0.00 30 993.6
20200406002121 57 96 5.0 10.0 0.00 0.00 0.00 30 993.5
20200406001121 58 190 4.0 10.0 0.00 0.00 0.00 27 993.3
20200406000121 58 327 6.0 11.0 0.00 0.00 0.00 27 993.4
20200405235122 60 152 4.0 8.0 0.00 0.00 0.00 27 993.8
20200405234122 61 140 3.0 8.0 0.00 0.00 0.00 27 993.5
20200405233122 60 100 3.0 7.0 0.00 0.00 0.00 29 993.5
20200405232121 59 98 2.0 5.0 0.00 0.00 0.00 29 993.4
20200405231122 60 91 2.0 4.0 0.00 0.00 0.00 30 993.6
20200405230122 59 115 2.0 4.0 0.00 0.00 0.00 33 993.7
20200405225121 60 104 4.0 8.0 0.00 0.00 0.00 28 993.9
20200405224121 60 106 4.0 8.0 0.00 0.00 0.00 30 993.9
20200405223121 59 106 3.0 8.0 0.00 0.00 0.00 33 993.9
20200405222122 59 133 3.0 5.0 0.00 0.00 0.00 34 994.3
20200405221122 60 120 3.0 9.0 0.00 0.00 0.00 34 994.4
20200405220121 60 119 4.0 8.0 0.00 0.00 0.00 37 994.5
20200405215121 59 150 3.0 5.0 0.00 0.00 0.00 36 994.7
20200405214122 58 94 4.0 7.0 0.00 0.00 0.00 39 994.7
20200405213121 57 87 3.0 7.0 0.00 0.00 0.00 39 995.2
20200405212121 57 70 5.0 9.0 0.00 0.00 0.00 40 995.3
20200405211121 55 57 1.0 5.0 0.00 0.00 0.00 46 995.7
20200405210122 53 99 2.0 3.0 0.00 0.00 0.00 47 996.0
20200405205121 53 82 3.0 7.0 0.00 0.00 0.00 49 996.0
20200405204121 53 110 3.0 6.0 0.00 0.00 0.00 46 996.3
20200405203121 55 147 3.0 6.0 0.00 0.00 0.00 39 996.5
20200405202122 54 102 4.0 11.0 0.00 0.00 0.00 44 996.4
20200405201121 54 109 1.0 3.0 0.00 0.00 0.00 39 996.1
20200405200121 55 94 3.0 5.0 0.00 0.00 0.00 42 996.3
20200405195121 55 86 5.0 8.0 0.00 0.00 0.00 44 996.5
20200405194121 54 112 2.0 5.0 0.00 0.00 0.00 45 996.9
20200405193121 53 94 4.0 9.0 0.00 0.00 0.00 47 996.8
20200405192122 54 86 3.0 5.0 0.00 0.00 0.00 42 996.9
20200405191122 54 77 3.0 6.0 0.00 0.00 0.00 41 997.0
20200405190122 54 99 4.0 7.0 0.00 0.00 0.00 43 997.1
20200405185122 53 88 4.0 9.0 0.00 0.00 0.00 44 997.3
20200405184122 54 100 4.0 7.0 0.00 0.00 0.00 43 997.4
20200405183121 54 100 2.0 6.0 0.00 0.00 0.00 45 997.4
20200405182121 53 89 4.0 7.0 0.00 0.00 0.00 44 997.5
20200405181121 52 90 4.0 8.0 0.00 0.00 0.00 45 997.6
20200405180121 53 98 4.0 7.0 0.00 0.00 0.00 44 997.8
20200405175121 53 111 3.0 7.0 0.00 0.00 0.00 43 997.9
20200405174122 54 110 4.0 10.0 0.00 0.00 0.00 45 997.9
20200405173122 53 105 4.0 7.0 0.00 0.00 0.00 44 998.0
20200405172122 52 112 3.0 7.0 0.00 0.00 0.00 46 998.1
20200405171121 51 146 3.0 5.0 0.00 0.00 0.00 47 998.1
20200405170121 51 105 3.0 7.0 0.00 0.00 0.00 47 998.2
20200405165122 51 129 2.0 5.0 0.00 0.00 0.00 47 998.2
20200405164122 49 95 2.0 4.0 0.00 0.00 0.00 48 998.3
20200405163121 48 93 2.0 3.0 0.00 0.00 0.00 47 998.4
20200405162121 47 152 1.0 2.0 0.00 0.00 0.00 48 998.5
20200405161121 46 227 2.0 3.0 0.00 0.00 0.00 49 998.7
20200405160121 46 278 2.0 3.0 0.00 0.00 0.00 50 998.7
20200405155122 45 279 2.0 5.0 0.00 0.00 0.00 50 998.7
20200405154121 45 277 3.0 6.0 0.00 0.00 0.00 51 998.8
20200405153121 45 277 2.0 4.0 0.00 0.00 0.00 53 998.9
20200405152122 44 316 2.0 4.0 0.00 0.00 0.00 54 999.0
20200405151121 44 297 2.0 4.0 0.00 0.00 0.00 56 999.3
20200405150121 43 278 3.0 5.0 0.00 0.00 0.00 54 999.4
20200405145122 43 332 1.0 3.0 0.00 0.00 0.00 55 999.4
20200405144122 43 331 1.0 3.0 0.00 0.00 0.00 56 999.3
20200405143122 43 276 3.0 5.0 0.00 0.00 0.00 55 999.4
20200405142122 42 278 4.0 7.0 0.00 0.00 0.00 56 999.2
20200405141121 42 276 5.0 9.0 0.00 0.00 0.00 55 999.3
20200405140121 42 297 1.0 4.0 0.00 0.00 0.00 55 999.1
20200405135121 42 312 2.0 4.0 0.00 0.00 0.00 55 998.9
20200405134121 42 307 2.0 3.0 0.00 0.00 0.00 55 999.1
20200405133122 41 277 5.0 8.0 0.00 0.00 0.00 55 999.1
20200405132121 42 265 4.0 7.0 0.00 0.00 0.00 53 999.1
20200405131121 42 267 6.0 11.0 0.00 0.00 0.00 51 999.0
20200405130121 42 263 5.0 9.0 0.00 0.00 0.00 49 999.0
20200405125121 42 263 5.0 9.0 0.00 0.00 0.00 48 998.9
20200405124122 43 268 5.0 9.0 0.00 0.00 0.00 46 998.8
20200405123122 43 268 5.0 8.0 0.00 0.00 0.00 45 998.8
20200405122122 43 276 8.0 11.0 0.00 0.00 0.00 44 998.8
20200405121121 44 275 8.0 11.0 0.00 0.00 0.00 44 998.7
20200405120122 44 277 7.0 11.0 0.00 0.00 0.00 44 998.6
20200405115121 43 273 2.0 7.0 0.00 0.00 0.00 47 998.5
20200405114122 43 278 3.0 4.0 0.00 0.00 0.00 48 998.4
20200405113122 44 278 1.0 3.0 0.00 0.00 0.00 45 998.5
20200405112122 43 283 2.0 3.0 0.00 0.00 0.00 46 998.6
20200405111121 44 281 1.0 2.0 0.00 0.00 0.00 49 998.5
20200405110121 45 270 3.0 5.0 0.00 0.00 0.00 41 998.6
20200405105121 45 326 1.0 2.0 0.00 0.00 0.00 38 998.5
20200405104121 43 320 1.0 3.0 0.00 0.00 0.00 47 998.4
20200405103121 44 275 3.0 7.0 0.00 0.00 0.00 50 998.4
20200405102121 44 107 1.0 2.0 0.00 0.00 0.00 46 998.3
20200405101121 44 105 1.0 2.0 0.00 0.00 0.00 46 998.4
20200405100122 44 211 0.0 4.0 0.00 0.00 0.00 49 998.5
20200405095122 46 84 1.0 2.0 0.00 0.00 0.00 38 998.6
20200405094122 48 202 2.0 7.0 0.00 0.00 0.00 33 998.5
20200405093122 45 336 1.0 2.0 0.00 0.00 0.00 44 998.6